Regional Weather Roundup
Issued by NWS Grand Forks, ND

Home | Current Version | Previous Version | Graphics & Text | Print | Product List | Glossary On
Versions: 1 2 3 4 5 6 7 8 9 10 11 12 13 14 15 16 17 18 19 20 21 22 23 24 25 26 27 28 29 30 31 32 33 34 35 36 37 38 39 40 41 42 43 44 45 46 47 48 49 50
000
ASUS43 KFGF 250131
RWRFGF
PRAIRIE TO PINES  WEATHER ROUNDUP
NATIONAL WEATHER SERVICE EASTERN NORTH DAKOTA/GRAND FORKS ND
800 PM CDT THU APR 24 2014

 **SATELLITE DATA USED TO AUGMENT SKY COVER AT AUTOMATED STATIONS**
 *****  WEATHER ACROSS EASTERN NORTH DAKOTA  *****

CITY           SKY/WX    TMP DP  RH WIND       PRES   REMARKS
GRAND FORKS    CLOUDY    43  40  89 E5        29.71S
GRAND FRKS AFB CLOUDY    43  43 100 E2        29.72R FOG
GRAND FRKS NWS   N/A     41 N/A N/A E5          N/A
DEVILS LAKE    MOCLDY    46  39  76 E13       29.70S
FARGO          MOCLDY    48  44  86 SE7       29.66F
WAHPETON ARPT  CLOUDY    45  37  76 E7        29.68F
$$

 ***** WEATHER ACROSS CENTRAL AND WESTERN NORTH DAKOTA  *****

CITY           SKY/WX    TMP DP  RH WIND       PRES   REMARKS
BISMARCK       CLEAR     58  26  29 N15G22    29.71R
MINOT          CLOUDY    56  34  43 N7        29.69S
JAMESTOWN      MOCLDY    50  35  56 NW17G26   29.68R
MINOT AFB      MOCLDY    57  33  40 N8        29.68S
GARRISON         N/A     55  27  34 NW10      29.70S
WILLISTON      PTCLDY    56  25  30 NW8       29.70S
DICKINSON      PTCLDY    55  22  27 NW9       29.71R
HETTINGER      MOCLDY    56  16  20 NW13      29.74R
$$

 *****  OTHER AIRPORT OBSERVATIONS IN OUR AREA  *****

CITY           SKY/WX    TMP DP  RH WIND       PRES   REMARKS
WALHALLA       FOG       39  39 100 E7        29.72S VSB 3/4
GRAFTON AIRPOR CLOUDY    39  39 100 E8        29.73S FOG
VALLEY CITY AR FAIR      46  37  71 N15G23    29.70R
CANDO          FAIR      45  41  87 E8        29.71R
CAVALIER APRT  FOG       39  39 100 E8        29.72F VSB 1
GWINNER        CLEAR     50  45  81 E9        29.70R
ROLLA          FAIR      46  43  87 N6        29.71R
 ***** THE ABOVE OBSERVATIONS ARE NON NWS ARE NOT QUALITY
       CONTROLLED AND MAY MIS-REPORT RAIN FOR SNOW...
$$

  *****  WEATHER ACROSS NORTHERN MINNESOTA  *****

CITY           SKY/WX    TMP DP  RH WIND       PRES   REMARKS
FLAG ISLAND    LGT SNOW  32  30  93 NE5       29.77F VSB 1
WARROAD        LGT SNOW  32  28  86 NE7       29.76S VSB 1
ROSEAU         LGT SNOW  34  28  80 E6        29.75S
HALLOCK        LGT RAIN  36  34  93 E7        29.74S
THF RVR FALLS  CLOUDY    34  30  86 NE5       29.72S
BAUDETTE       LGT SNOW  33  32  96 E10       29.75F VSB 1   WCI  25
WASKISH        LGT SNOW  34  32  93 NE3       29.73S
CROOKSTON      MIX PCPN  39  37  93 E5        29.72R
$$
  *****  WEATHER ACROSS CENTRAL AND WEST MINNESOTA  *****

CITY           SKY/WX    TMP DP  RH WIND       PRES   REMARKS
FOSSTON        CLOUDY    34  34 100 CALM      29.70F
BEMIDJI        LGT SNOW  32  32 100 CALM      29.70R VSB 3/4
PARK RAPIDS    CLOUDY    34  34 100 CALM      29.69R FOG
ELBOW LAKE     MOCLDY    46  42  86 NW12G17   29.72R
WADENA         CLOUDY    39  37  93 CALM      29.69S
DETROIT LAKES  MOCLDY    37  37 100 S5        29.71R
MOORHEAD       MOCLDY    48  46  93 SE6       29.68S
FERGUS FALLS   LGT RAIN  43  41  93 W16       29.70R
MORRIS MN      MOCLDY    46  43  87 SW5       29.68F
STAPLES        CLOUDY    36  36 100 NW3       29.70S
$$
  *****  WEATHER ELSEWHERE ACROSS MINNESOTA  *****

CITY           SKY/WX    TMP DP  RH WIND       PRES   REMARKS
DULUTH         CLOUDY    33  30  88 E16       29.69F WCI  23
INTRNTL FALLS  SNOW      33  31  92 E10       29.75F VSB 1/2 WCI  25
ELY            CLOUDY    34  30  86 E13       29.73F WCI  25
CLOQUET        MIX PCPN  34  32  93 E3        29.68F
WHEATON        MOCLDY    48  45  87 NW6       29.73R
BRAINERD       CLOUDY    40  33  76 CALM      29.71S
HIBBING        LGT SNOW  34  32  92 E7        29.70S FOG
ALEXANDRIA     PTCLDY    45  40  82 NE6       29.69F
SAINT CLOUD    CLOUDY    44  38  79 NW6       29.70S
MINNEAPOLIS    CLOUDY    45  41  86 W7        29.70R
$$

  *****  WEATHER ACROSS SOUTH DAKOTA  *****

CITY           SKY/WX    TMP DP  RH WIND       PRES   REMARKS
SIOUX FALLS    PTCLDY    58  32  37 NW10      29.71R
BROOKINGS      NOT AVBL
WATERTOWN      PTCLDY    54  39  57 E3        29.69R
HURON          CLEAR     60  22  23 NW13      29.71R
SISSETON         N/A     49  44  83 S6        29.69S
ABERDEEN       CLEAR     59  18  20 NW16      29.69R
MITCHELL       CLEAR     63  18  17 NW16      29.73R
PIERRE         CLEAR     60  24  25 NW13      29.73R
MOBRIDGE       CLEAR     59  18  20 NW10      29.69R
RAPID CITY     MOCLDY    55  31  39 NE6       29.78R
$$

  *****  SOME WEATHER IN NEARBY STATES *****

CITY           SKY/WX    TMP DP  RH WIND       PRES   REMARKS
GLASGOW MT     PTSUNNY   57  27  31 W20       29.69R
GREAT FALLS MT PTSUNNY   54  29  38 W12       29.75R
CHEYENNE WY    CLOUDY    57  18  21 W16       29.90R
SCOTTSBLUFF NE MOCLDY    60  23  24 NW3       29.81S
OMAHA NE       CLOUDY    63  41  44 CALM      29.76R
DES MOINES IA  CLOUDY    54  45  71 N6        29.73R
DAVENPORT IA   LGT RAIN  53  51  93 NW7       29.66S FOG
CHICAGO IL     LGT RAIN  57  36  45 SE14      29.72R
EAU CLAIRE WI  CLOUDY    43  43 100 CALM      29.67R FOG
LA CROSSE WI   CLOUDY    47  45  93 CALM      29.68R FOG
$$

  *****  SOME NATIONAL WEATHER *****

CITY           SKY/WX    TMP DP  RH WIND       PRES   REMARKS
LA GUARDIA NY  PTCLDY    56  13  18 NW12      29.97R
RALEIGH NC     MOCLDY    61  37  41 SE5       30.02R
ATLANTA GA     MOCLDY    72  49  44 S6        29.91S
NEW ORLEANS LA PTCLDY    73  66  78 S9        29.90R
OKLAHOMA CITY  MOCLDY    69  32  25 N12       29.90R
ALBUQUERQUE NM PTCLDY    69   6   8 VRB3      30.00S
SALT LAKE CITY PTSUNNY   63  26  24 N10       29.90F
LOS ANGELES CA MOSUNNY   66  53  63 W14       29.91F
BOISE ID       TSTM      52  43  71 NW7       29.89R
SEATTLE WA     PTSUNNY   54  41  61 W13G23    29.87S
$$

*** WEATHER ACROSS MANITOBA...SASKATCHEWAN AND ONTARIO ***
                ***ONTARIO***

CITY           SKY/WX    TMP DP  RH WIND       PRES   REMARKS
GERALDTON      MOCLDY    46  23  39 S5        29.97S
THUNDER BAY    LGT SNOW  32  32 100 E14       29.94F VSB 5/8 WCI  22
SIOUX LOOKOUT  CLOUDY    41  23  48 SE8G17    29.86S
TORONTO        MOCLDY    48  18  29 S5        30.05F
BIG TROUT LK   CLEAR     28  19  69 E13G21    30.14S WCI  18
PICKLE LAKE    CLOUDY    46  23  39 E7        29.93S
DRYDEN         LGT SNOW  32  32 100 E9        29.84S WCI  24
KENORA         LGT SNOW  32  32 100 E9        29.81S WCI  24
$$
                *** MANITOBA***

CITY           SKY/WX    TMP DP  RH WIND       PRES   REMARKS
BRANDON        LGT RAIN  43  41  93 E13       29.72R
DAUPHIN        CLOUDY    36  36 100 E13       29.76S FOG
ISLAND LAKE    CLOUDY    37  28  70 E14       30.02R
PILOT MOUND      N/A     45  41  87 E5          N/A
THE PAS        FLURRIES  36  27  69 E10G20    29.94R
THOMPSON       CLOUDY    30  19  64 NE18      30.13S WCI  18
WINNIPEG       LGT SNOW  32  32 100 E8        29.78S FOG     WCI  25
LYNN LAKE      PTCLDY    27  18  69 E15G24    30.12R WCI  15
CHURCHILL      FLURRIES  16  10  79 E8        30.43S WCI   5
GILLAM         MOCLDY    25  18  74 NE14G21   30.26R WCI  13
$$
                ***SASKATCHEWAN***

CITY           SKY/WX    TMP DP  RH WIND       PRES   REMARKS
ESTEVAN        PTCLDY    54  30  40 NW10      29.69R
KINDERSLEY     MOSUNNY   45  34  65 N16       29.70R
LLOYDMINSTER   CLOUDY    36  34  93 E10       29.75
PRINCE ALBERT  LGT SNOW  30  28  93 E18G26    29.79R FOG     WCI  18
REGINA         PTCLDY    50  36  57 N13       29.68R
YORKTON        LGT RAIN  39  37  93 E10       29.71R FOG
N. BATTLEFORD  PTSUNNY   36  30  80 NE14      29.77R
LA RONGE       CLOUDY    36  23  60 NE12G24   29.92
SASKATOON      DRIZZLE   36  34  93 N16       29.72R FOG
SWIFT CURRENT  MOSUNNY   52  28  40 N16       29.66R
$$
NOTE: THESE ARE AUTOMATED STATIONS WITH LIMITED QUALITY CONTROL
      "FAIR" INDICATES FEW OR NO CLOUDS BELOW 12,000 FEET WITH NO
      SIGNIFICANT WEATHER AND/OR OBSTRUCTIONS TO VISIBILITY.
      SKY/WX - SKY CONDITION AND SIGNIFICANT WEATHER.
      TMP - AIR TEMPERATURE.    DP   - DEWPOINT TEMPERATURE.
      RH  - RELATIVE HUMIDITY.  PRES - PRESSURE.
      HX  - HEAT INDEX.         WCI  - WIND CHILL INDEX.
$



USA.gov is the U.S. government's official web portal to all federal, state and local government web resources and services.